• In Hungary
  • List of Countries
  • For 7 days
  • Water Temperature
  • Satellite Maps
  • Weather Map
  • News
  • Weather Widgets
  • user-avatar
    Login

    Hourly Weather Kolva

    Today, 27 May, Sunday

    Time Temperature Precipitation Wind Pressure Humidity
    00:00 +5°C° 1.2 mm 5 mps 751 mmHg 77%
    01:00 +3°C° 1.2 mm 5 mps 750 mmHg 79%
    02:00 +2°C° 0 mm 5 mps 750 mmHg 78%
    03:00 +2°C° 0 mm 5 mps 750 mmHg 76%
    04:00 +1°C° 0 mm 4 mps 750 mmHg 74%
    05:00 +2°C° 0.1 mm 5 mps 750 mmHg 73%
    06:00 +2°C° 0.1 mm 6 mps 749 mmHg 72%
    07:00 +3°C° 0.1 mm 7 mps 749 mmHg 70%
    08:00 +3°C° 0.4 mm 7 mps 749 mmHg 70%
    09:00 +2°C° 0.4 mm 8 mps 748 mmHg 69%
    10:00 +2°C° 0.4 mm 8 mps 748 mmHg 68%
    11:00 +4°C° 0.1 mm 8 mps 748 mmHg 65%
    12:00 +4°C° 0.1 mm 8 mps 748 mmHg 63%
    13:00 +3°C° 0.1 mm 9 mps 748 mmHg 60%
    14:00 +3°C° 0.1 mm 9 mps 748 mmHg 60%
    15:00 +4°C° 0.1 mm 8 mps 748 mmHg 60%
    16:00 +4°C° 0.1 mm 8 mps 747 mmHg 60%
    17:00 +2°C° 0.3 mm 8 mps 747 mmHg 65%
    18:00 +2°C° 0.3 mm 8 mps 747 mmHg 69%
    19:00 +1°C° 0.3 mm 8 mps 747 mmHg 73%
    20:00 +2°C° 0.3 mm 7 mps 747 mmHg 76%
    21:00 0°C° 0.3 mm 7 mps 747 mmHg 78%
    22:00 0°C° 0.3 mm 7 mps 747 mmHg 80%
    23:00 -1°C° 0.2 mm 7 mps 748 mmHg 82%

    Tomorrow, 28 May, Monday

    Time Temperature Precipitation Wind Pressure Humidity
    00:00 -1°C° 0.2 mm 7 mps 748 mmHg 83%
    01:00 -1°C° 0.2 mm 7 mps 748 mmHg 84%
    02:00 -2°C° 0.1 mm 7 mps 749 mmHg 84%
    03:00 -2°C° 0.1 mm 6 mps 750 mmHg 84%
    04:00 -2°C° 0.1 mm 6 mps 750 mmHg 85%
    05:00 -2°C° 0.1 mm 6 mps 751 mmHg 84%
    06:00 -1°C° 0.1 mm 7 mps 752 mmHg 83%
    07:00 -1°C° 0.1 mm 7 mps 752 mmHg 82%
    08:00 -1°C° 0.1 mm 7 mps 753 mmHg 79%
    09:00 -1°C° 0.1 mm 7 mps 754 mmHg 77%
    10:00 0°C° 0.1 mm 7 mps 754 mmHg 75%
    11:00 0°C° 0.1 mm 7 mps 755 mmHg 72%
    12:00 +2°C° 0.1 mm 6 mps 755 mmHg 69%
    13:00 +2°C° 0.1 mm 6 mps 756 mmHg 66%
    14:00 +2°C° 0 mm 6 mps 756 mmHg 64%
    15:00 +3°C° 0 mm 6 mps 757 mmHg 61%
    16:00 +3°C° 0 mm 6 mps 757 mmHg 58%
    17:00 +3°C° 0 mm 5 mps 757 mmHg 61%
    18:00 +2°C° 0 mm 5 mps 757 mmHg 65%
    19:00 +3°C° 0 mm 4 mps 757 mmHg 68%
    20:00 +1°C° 0.1 mm 4 mps 757 mmHg 72%
    21:00 +1°C° 0.1 mm 3 mps 757 mmHg 77%
    22:00 +2°C° 0.1 mm 2 mps 757 mmHg 81%
    23:00 +1°C° 0 mm 2 mps 757 mmHg 85%

    Day after tomorrow, 29 May, Tuesday

    Time Temperature Precipitation Wind Pressure Humidity
    00:00 -1°C° 0 mm 2 mps 757 mmHg 88%
    01:00 -2°C° 0 mm 2 mps 756 mmHg 92%
    02:00 -2°C° 0 mm 2 mps 756 mmHg 90%
    03:00 -2°C° 0 mm 2 mps 756 mmHg 87%
    04:00 -2°C° 0 mm 2 mps 756 mmHg 85%
    05:00 -1°C° 0 mm 2 mps 756 mmHg 80%
    06:00 -1°C° 0 mm 2 mps 756 mmHg 75%
    07:00 +1°C° 0 mm 2 mps 756 mmHg 70%
    08:00 +2°C° 0 mm 2 mps 756 mmHg 68%
    09:00 +2°C° 0 mm 2 mps 756 mmHg 66%
    10:00 +3°C° 0 mm 2 mps 756 mmHg 64%
    11:00 +3°C° 0 mm 2 mps 756 mmHg 61%
    12:00 +4°C° 0 mm 2 mps 756 mmHg 59%
    13:00 +5°C° 0 mm 2 mps 756 mmHg 56%
    14:00 +5°C° 0 mm 2 mps 756 mmHg 55%
    15:00 +5°C° 0 mm 2 mps 755 mmHg 53%
    16:00 +6°C° 0 mm 2 mps 755 mmHg 52%
    17:00 +6°C° 0 mm 1 mps 755 mmHg 52%
    18:00 +6°C° 0 mm 1 mps 755 mmHg 53%
    19:00 +6°C° 0 mm 1 mps 754 mmHg 53%
    20:00 +5°C° 0 mm 1 mps 754 mmHg 58%
    21:00 +5°C° 0 mm 1 mps 754 mmHg 62%
    22:00 +4°C° 0 mm 1 mps 753 mmHg 67%
    23:00 +4°C° 0 mm 1 mps 753 mmHg 69%

    30 May, Wednesday

    Time Temperature Precipitation Wind Pressure Humidity
    00:00 +2°C° 0 mm 2 mps 752 mmHg 72%
    01:00 +2°C° 0 mm 2 mps 752 mmHg 75%
    02:00 +2°C° 0 mm 2 mps 751 mmHg 74%
    03:00 +2°C° 0 mm 2 mps 751 mmHg 74%
    04:00 +2°C° 0 mm 2 mps 750 mmHg 74%
    05:00 +3°C° 0 mm 2 mps 750 mmHg 69%
    06:00 +4°C° 0 mm 2 mps 749 mmHg 65%
    07:00 +5°C° 0 mm 2 mps 749 mmHg 61%
    08:00 +5°C° 0.1 mm 2 mps 748 mmHg 56%
    09:00 +5°C° 0.1 mm 3 mps 748 mmHg 51%
    10:00 +7°C° 0.1 mm 3 mps 747 mmHg 47%
    11:00 +7°C° 0 mm 3 mps 747 mmHg 46%
    12:00 +8°C° 0 mm 3 mps 747 mmHg 45%
    13:00 +8°C° 0 mm 3 mps 747 mmHg 44%
    14:00 +8°C° 0 mm 3 mps 747 mmHg 43%
    15:00 +8°C° 0 mm 3 mps 747 mmHg 42%
    16:00 +8°C° 0 mm 4 mps 747 mmHg 41%
    17:00 +7°C° 0 mm 4 mps 747 mmHg 41%
    18:00 +7°C° 0 mm 4 mps 747 mmHg 42%
    19:00 +7°C° 0 mm 5 mps 747 mmHg 43%
    20:00 +5°C° 0 mm 4 mps 747 mmHg 48%
    21:00 +4°C° 0 mm 4 mps 747 mmHg 54%
    22:00 +3°C° 0 mm 4 mps 747 mmHg 59%
    23:00 +1°C° 0 mm 4 mps 747 mmHg 63%

    31 May, Thursday

    Time Temperature Precipitation Wind Pressure Humidity
    00:00 0°C° 0 mm 5 mps 748 mmHg 67%
    01:00 -1°C° 0 mm 5 mps 748 mmHg 71%
    02:00 -2°C° 0 mm 5 mps 748 mmHg 71%
    03:00 -3°C° 0 mm 6 mps 748 mmHg 70%
    04:00 -3°C° 0 mm 6 mps 748 mmHg 69%
    05:00 -2°C° 0 mm 6 mps 748 mmHg 66%
    06:00 -1°C° 0 mm 6 mps 748 mmHg 62%
    07:00 -1°C° 0 mm 7 mps 748 mmHg 59%
    08:00 0°C° 0 mm 7 mps 748 mmHg 56%
    09:00 +2°C° 0 mm 7 mps 748 mmHg 53%
    10:00 +3°C° 0 mm 7 mps 748 mmHg 50%
    11:00 +4°C° 0 mm 6 mps 748 mmHg 48%
    12:00 +4°C° 0 mm 6 mps 748 mmHg 47%
    13:00 +5°C° 0 mm 6 mps 748 mmHg 45%
    14:00 +5°C° 0 mm 6 mps 748 mmHg 46%
    15:00 +5°C° 0 mm 6 mps 749 mmHg 46%
    16:00 +4°C° 0 mm 6 mps 749 mmHg 47%
    17:00 +4°C° 0 mm 6 mps 749 mmHg 49%
    18:00 +3°C° 0 mm 6 mps 749 mmHg 51%
    19:00 +3°C° 0 mm 5 mps 750 mmHg 52%
    20:00 +2°C° 0 mm 5 mps 750 mmHg 57%
    21:00 +1°C° 0 mm 5 mps 750 mmHg 61%
    22:00 0°C° 0 mm 4 mps 750 mmHg 65%
    23:00 0°C° 0 mm 4 mps 751 mmHg 70%

    1 June, Friday

    Time Temperature Precipitation Wind Pressure Humidity
    00:00 -1°C° 0 mm 4 mps 751 mmHg 74%
    01:00 -1°C° 0 mm 4 mps 751 mmHg 79%
    02:00 -1°C° 0 mm 4 mps 751 mmHg 79%
    03:00 0°C° 0 mm 3 mps 752 mmHg 80%
    04:00 0°C° 0 mm 3 mps 752 mmHg 80%
    05:00 -1°C° 0.1 mm 4 mps 752 mmHg 77%
    06:00 0°C° 0.1 mm 4 mps 752 mmHg 73%
    07:00 0°C° 0.1 mm 4 mps 753 mmHg 69%
    08:00 +1°C° 0.1 mm 4 mps 753 mmHg 65%
    09:00 +3°C° 0.1 mm 4 mps 753 mmHg 61%
    10:00 +3°C° 0.1 mm 4 mps 754 mmHg 57%
    11:00 +4°C° 0.1 mm 4 mps 754 mmHg 55%
    12:00 +4°C° 0.1 mm 4 mps 754 mmHg 53%
    13:00 +5°C° 0.1 mm 4 mps 754 mmHg 51%
    14:00 +5°C° 0 mm 4 mps 755 mmHg 52%
    15:00 +5°C° 0 mm 4 mps 755 mmHg 53%
    16:00 +5°C° 0 mm 4 mps 755 mmHg 53%
    17:00 +5°C° 0 mm 4 mps 756 mmHg 55%
    18:00 +4°C° 0 mm 4 mps 756 mmHg 57%
    19:00 +4°C° 0 mm 3 mps 756 mmHg 59%
    20:00 +3°C° 0 mm 3 mps 756 mmHg 63%
    21:00 +4°C° 0 mm 2 mps 756 mmHg 67%
    22:00 +3°C° 0 mm 2 mps 757 mmHg 71%
    23:00 +2°C° 0 mm 2 mps 757 mmHg 74%
    Show more